Weather History for Vero Beach, FL

Change the Weather History Date:

Tuesday, December 17, 2013

  Actual Average Record
Temperature  
Mean Temperature 63 °F 64 °F  
Max Temperature 75 °F 74 °F 85 °F (1961)
Min Temperature 51 °F 55 °F 30 °F (1968)
Degree Days  
Heating Degree Days 2 4  
Month to date heating degree days 8 45  
Since 1 July heating degree days 19 75  
Cooling Degree Days 0 3  
Month to date cooling degree days 89 58  
Year to date cooling degree days 3562 3369  
Growing Degree Days 12 (Base 50)    
Moisture  
Dew Point 56 °F    
Average Humidity 79    
Maximum Humidity 100    
Minimum Humidity 57    
Precipitation  
Precipitation 0.00 in 0.07 in 2.23 in (1977)
Month to date precipitation 2.12 1.19  
Year to date precipitation 44.33 50.87  
Sea Level Pressure  
Sea Level Pressure 30.18 in    
Wind  
Wind Speed 6 mph (NNW)    
Max Wind Speed 14 mph    
Max Gust Speed 18 mph    
Visibility 10 miles    
Events      
T = Trace of Precipitation, MM = Missing Value Source: NWS Daily Summary

Daily Weather History Graph

Daily Weather History Graph

Search for Another Location

Airport:

Trip Planner

Search our weather history database for the weather conditions in past years. The results will help you decide how hot, cold, wet, or windy it might be!

Date:

Astronomy

Dec. 17, 2013 Rise Set
Actual Time 7:06 AM EST 5:29 PM EST
Civil Twilight 6:40 AM EST 5:55 PM EST
Nautical Twilight 6:11 AM EST 6:24 PM EST
Astronomical Twilight 5:42 AM EST 6:53 PM EST
Moon 6:03 PM EST (12/17) 7:05 AM EST (12/17)
Length of Visible Light 11h 15m
Length of Day
10h 23m
Full, 100% of the Moon is Illuminated
Dec 17
Full
Dec 25
Last Quarter
Jan 1
New
Jan 7
First Quarter
Jan 15
Full

Hourly Weather History & Observations

Time (EST) Temp. Dew Point Humidity Pressure Visibility Wind Dir Wind Speed Gust Speed Precip Events Conditions
1:53 AM 51.1 °F 50.0 °F 96% 30.17 in 10.0 mi NW 5.8 mph - N/A   Clear
2:53 AM 52.0 °F 51.1 °F 97% 30.17 in 10.0 mi NW 5.8 mph - N/A   Clear
3:53 AM 52.0 °F 51.1 °F 97% 30.17 in 10.0 mi NW 6.9 mph - N/A   Clear
4:53 AM 51.1 °F 51.1 °F 100% 30.17 in 9.0 mi NW 5.8 mph - N/A   Clear
5:53 AM 52.0 °F 52.0 °F 100% 30.17 in 8.0 mi NNW 6.9 mph - N/A   Clear
6:53 AM 53.1 °F 53.1 °F 100% 30.20 in 7.0 mi NW 4.6 mph - N/A   Clear
7:53 AM 55.0 °F 55.0 °F 100% 30.21 in 5.0 mi WNW 4.6 mph - N/A   Clear
8:53 AM 63.0 °F 61.0 °F 93% 30.22 in 10.0 mi NNW 4.6 mph - N/A   Partly Cloudy
9:53 AM 69.1 °F 62.1 °F 78% 30.22 in 10.0 mi North 6.9 mph - N/A   Clear
10:53 AM 73.0 °F 60.1 °F 64% 30.22 in 10.0 mi North 6.9 mph - N/A   Scattered Clouds
11:53 AM 73.0 °F 57.0 °F 57% 30.20 in 10.0 mi Variable 3.5 mph - N/A   Scattered Clouds
12:53 PM 73.9 °F 57.0 °F 55% 30.17 in 10.0 mi NNE 6.9 mph - N/A   Mostly Cloudy
1:53 PM 73.9 °F 60.1 °F 62% 30.14 in 10.0 mi North 11.5 mph - N/A   Partly Cloudy
2:53 PM 73.0 °F 59.0 °F 61% 30.14 in 10.0 mi North 13.8 mph - N/A   Scattered Clouds
3:53 PM 72.0 °F 59.0 °F 64% 30.14 in 10.0 mi North 8.1 mph - N/A   Clear
4:53 PM 69.1 °F 60.1 °F 73% 30.15 in 10.0 mi North 8.1 mph - N/A   Clear
5:53 PM 64.0 °F 59.0 °F 84% 30.16 in 10.0 mi NNW 5.8 mph - N/A   Clear
6:53 PM 61.0 °F 57.9 °F 90% 30.18 in 10.0 mi North 5.8 mph - N/A   Clear
7:53 PM 60.1 °F 57.9 °F 93% 30.19 in 10.0 mi NNW 3.5 mph - N/A   Clear
8:53 PM 57.0 °F 57.0 °F 100% 30.20 in 10.0 mi Calm Calm - N/A   Clear
9:53 PM 55.9 °F 55.9 °F 100% 30.20 in 10.0 mi Calm Calm - N/A   Clear
10:53 PM 55.0 °F 55.0 °F 100% 30.20 in 10.0 mi NNW 5.8 mph - N/A   Clear
11:53 PM 57.0 °F 57.0 °F 100% 30.19 in 10.0 mi NW 3.5 mph - N/A   Clear